User: anonymous   Login
Location: Unspecified
(0.0000°N, 0.0000°E)
Time: 02:25:41
(UTC+02:00)
Language:

Cosmos 1703 - Orbit

View from above orbital plane
View from above orbital plane
View from above satellite
View from above satellite

Ground track
Ground track

The orbit data is extracted from the following two-line orbital elements,

1 16262U 85108A   16243.20392878  .00000523  00000-0  30400-4 0  9995
2 16262  82.4858 175.6362 0009662 192.2639 167.8356 15.09905599674981
Epoch (UTC): 30 August 2016 04:53:39
Eccentricity: 0.0009662
inclination: 82.4858°
perigee height: 530 km
apogee height: 543 km
right ascension of ascending node: 175.6362°
argument of perigee: 192.2639°
revolutions per day: 15.09905599
mean anomaly at epoch: 167.8356°
orbit number at epoch: 67498

The dashed part of the orbit path shows where the satellite is in the earth's shadow,  

DLR